User: anonymous   Login
Location: Unspecified
(0.0000°N, 0.0000°E)
Time: 20:49:30
(UTC+00:00)
Language:

Telecom 1B - Orbit

View from above orbital plane
View from above orbital plane
View from above satellite
View from above satellite

Ground track
Ground track

The orbit is defined by the following mean orbital elements,

1 15678U          26150.35091169 +.00000000 +00000-0 +00000-0 0 00008
2 15678  10.1680 321.0433 0001878   7.2227 357.2426  1.00340931    05
Epoch (UTC): 30 May 2026 08:25:18
Eccentricity: 0.0001878
inclination: 10.1680°
perigee height: 35759 km
apogee height: 35775 km
right ascension of ascending node: 321.0433°
argument of perigee: 7.2227°
revolutions per day: 1.00340931
mean anomaly at epoch: 357.2426°

The dashed part of the orbit path shows where the satellite is in the earth's shadow,  

DLR